Miscellaneous Local Product
Issued by NWS Hastings, NE

Home | Current Version | Previous Version | Text Only | Print | Product List | Glossary Off
Versions: 1 2 3 4 5 6 7 8 9 10 11 12 13 14 15 16 17 18 19 20 21 22 23 24 25 26 27 28 29 30 31 32 33 34 35 36 37 38 39 40 41 42 43 44 45 46 47 48 49 50

000
AXUS43 KGID 200002
MISGRI

GID CWA HOURLY WEATHER ROUNDUP
NATIONAL WEATHER SERVICE HASTINGS NE
700 PM CDT SUN APR 19 2015

NOTE: "FAIR" INDICATES FEW OR NO CLOUDS BELOW 12,000 FEET WITH NO
SIGNIFICANT WEATHER AND/OR OBSTRUCTIONS TO VISIBILITY.

...SOUTH CENTRAL NEBRASKA...

CITY           SKY/WX    TMP DP  RH WIND       PRES   REMARKS
GRAND ISLAND   CLOUDY    52  28  39 N29G35    29.84R
HASTINGS       PTSUNNY   52  32  46 N22G32    29.84R
KEARNEY          N/A    N/A N/A N/A MISG        N/A
ORD            CLOUDY    51  28  41 N25G40    29.85S
YORK           MOSUNNY   52  36  54 N10G24    29.80S
AURORA         PTSUNNY   53  31  43 N32       29.83R
LEXINGTON      PTSUNNY   51  32  48 N23       29.90S
HOLDREGE       MOSUNNY   52  29  40 N18G32    29.87S
HEBRON         PTSUNNY   54  30  40 N17G26    29.81R

...NEBRASKA PANHANDLE...

CITY           SKY/WX    TMP DP  RH WIND       PRES   REMARKS
CHADRON        CLOUDY    53  21  28 NW14G25   29.98F
ALLIANCE       PTSUNNY   50  20  30 NW25G32   29.97S
SCOTTSBLUFF    MOSUNNY   50  20  30 NW23G32   30.01F
SIDNEY         MOSUNNY   45  21  38 NW23G37   30.01S

...WESTERN AND NORTH CENTRAL NEBRASKA...

CITY           SKY/WX    TMP DP  RH WIND       PRES   REMARKS
VALENTINE      MOSUNNY   50  27  40 N23G35    29.92R
AINSWORTH      PTSUNNY   50  28  43 N28G33    29.91R
ONEILL         MOSUNNY   52  31  44 NW29G36   29.86R
BROKEN BOW     MOSUNNY   52  26  36 N26G35    29.88S
IMPERIAL       CLOUDY    50  23  34 N20       29.96S
NORTH PLATTE   PTSUNNY   50  24  36 N23G31    29.93S
MCCOOK         PTSUNNY   53  25  33 N18G30    29.93R

...EASTERN NEBRASKA...

CITY           SKY/WX    TMP DP  RH WIND       PRES   REMARKS
NORFOLK        NOT AVBL
SO SIOUX CITY  CLOUDY    55  32  41 NW32G41   29.71S
TEKAMAH        CLOUDY    54  39  57 NW21G33   29.72S
COLUMBUS       PTSUNNY   52  30  43 NW22G31   29.80S
ALBION         CLOUDY    52  30  43 N21G30    29.82R
OMAHA EPPLEY   CLOUDY    52  46  80 N8        29.71F
OFFUTT AFB     CLOUDY    52  42  69 NW12      29.70F
MILLARD        CLOUDY    54  41  62 NW9       29.72F
LINCOLN        CLOUDY    55  34  45 NW23G31   29.76S
NEBRASKA CITY  CLOUDY    51  40  66 N13G23    29.72S
BEATRICE       CLOUDY    53  36  53 NW23      29.76S
FALLS CITY     CLOUDY    51  42  71 NW13G24   29.72R

...NORTHERN KANSAS...

CITY           SKY/WX    TMP DP  RH WIND       PRES   REMARKS
GOODLAND       PTSUNNY   50  24  36 N24G31    29.98S
HILL CITY      CLOUDY    55  26  32 NW23G31   29.91S
NORTON         CLOUDY    54  21  28 NW21G33   29.89S
PHILLIPSBURG   PTSUNNY   55  30  38 NW23G30   29.88S
SMITH CENTER   CLOUDY    54  28  37 NW22G29   29.85S
BELOIT         SUNNY     54  34  47 N12       29.82S
HAYS           CLOUDY    55  27  33 N26       29.89R
RUSSELL        MOSUNNY   56  28  34 N25G36    29.85F
CONCORDIA      PTSUNNY   55  33  43 N22G29    29.81S
SALINA         PTSUNNY   53  37  54 NW9       29.83S
TOPEKA         LGT RAIN  50  45  83 NW13      29.74R



USA.gov is the U.S. government's official web portal to all federal, state and local government web resources and services.